| time (UTC) | temp F | wind direction | speed MPH | gust MPH | rain 1hr in | rain 24hr in | rain mn in | humidity % | barometer mb |
| 20260508215559 | 88 | 171 | 5.0 | 7.0 | 0.00 | 0.00 | 0.00 | 71 | 1012.8 |
| 20260508215056 | 88 | 219 | 2.0 | 2.0 | 0.00 | 0.00 | 0.00 | 70 | 1012.9 |
| 20260508214553 | 89 | 147 | 9.0 | 11.0 | 0.00 | 0.00 | 0.00 | 69 | 1012.7 |
| 20260508214049 | 89 | 108 | 8.0 | 11.0 | 0.00 | 0.00 | 0.00 | 69 | 1012.6 |
| 20260508213547 | 89 | 126 | 5.0 | 5.0 | 0.00 | 0.00 | 0.00 | 70 | 1012.8 |
| 20260508213042 | 90 | 145 | 5.0 | 6.0 | 0.00 | 0.00 | 0.00 | 68 | 1012.8 |
| 20260508212539 | 90 | 176 | 4.0 | 5.0 | 0.00 | 0.00 | 0.00 | 66 | 1012.9 |
| 20260508212035 | 89 | 98 | 3.0 | 5.0 | 0.00 | 0.00 | 0.00 | 70 | 1012.8 |
| 20260508211531 | 89 | 29 | 3.0 | 3.0 | 0.00 | 0.00 | 0.00 | 70 | 1013.0 |
| 20260508211028 | 89 | 157 | 4.0 | 6.0 | 0.00 | 0.00 | 0.00 | 71 | 1012.8 |
| 20260508210524 | 90 | 151 | 6.0 | 8.0 | 0.00 | 0.00 | 0.00 | 69 | 1013.0 |
| 20260508210022 | 89 | 159 | 4.0 | 5.0 | 0.00 | 0.00 | 0.00 | 70 | 1012.9 |
| 20260508205519 | 89 | 133 | 7.0 | 9.0 | 0.00 | 0.00 | 0.00 | 69 | 1013.0 |
| 20260508205015 | 90 | 187 | 6.0 | 9.0 | 0.00 | 0.00 | 0.00 | 68 | 1013.3 |
| 20260508204512 | 91 | 198 | 2.0 | 2.0 | 0.00 | 0.00 | 0.00 | 68 | 1013.1 |
| 20260508204007 | 91 | 30 | 1.0 | 2.0 | 0.00 | 0.00 | 0.00 | 68 | 1013.2 |
| 20260508203503 | 90 | 117 | 5.0 | 7.0 | 0.00 | 0.00 | 0.00 | 68 | 1013.2 |
| 20260508202959 | 90 | 203 | 3.0 | 5.0 | 0.00 | 0.00 | 0.00 | 67 | 1013.4 |
| 20260508202457 | 90 | 101 | 7.0 | 9.0 | 0.00 | 0.00 | 0.00 | 68 | 1013.3 |
| 20260508201954 | 90 | 129 | 4.0 | 6.0 | 0.00 | 0.00 | 0.00 | 68 | 1013.3 |
| 20260508201451 | 90 | 98 | 3.0 | 5.0 | 0.00 | 0.00 | 0.00 | 68 | 1013.2 |
| 20260508200947 | 90 | 150 | 4.0 | 7.0 | 0.00 | 0.00 | 0.00 | 67 | 1013.3 |
| 20260508200444 | 90 | 140 | 3.0 | 3.0 | 0.00 | 0.00 | 0.00 | 67 | 1013.2 |
| 20260508195938 | 90 | 132 | 2.0 | 3.0 | 0.00 | 0.00 | 0.00 | 66 | 1013.5 |
| 20260508195437 | 90 | 112 | 7.0 | 8.0 | 0.00 | 0.00 | 0.00 | 65 | 1013.5 |
| 20260508194932 | 91 | 169 | 4.0 | 6.0 | 0.00 | 0.00 | 0.00 | 65 | 1013.8 |
| 20260508194430 | 90 | 118 | 4.0 | 5.0 | 0.00 | 0.00 | 0.00 | 68 | 1013.8 |
| 20260508193927 | 89 | 110 | 4.0 | 5.0 | 0.00 | 0.00 | 0.00 | 69 | 1013.9 |
| 20260508193424 | 89 | 121 | 2.0 | 2.0 | 0.00 | 0.00 | 0.00 | 69 | 1014.1 |
| 20260508192920 | 89 | 145 | 5.0 | 6.0 | 0.00 | 0.00 | 0.00 | 69 | 1014.0 |
| 20260508192417 | 91 | 318 | 1.0 | 2.0 | 0.00 | 0.00 | 0.00 | 65 | 1014.1 |
| 20260508191914 | 91 | 121 | 2.0 | 2.0 | 0.00 | 0.00 | 0.00 | 64 | 1014.2 |
| 20260508191411 | 91 | 134 | 7.0 | 9.0 | 0.00 | 0.00 | 0.00 | 64 | 1014.1 |
| 20260508190908 | 91 | 77 | 2.0 | 2.0 | 0.00 | 0.00 | 0.00 | 65 | 1014.2 |
| 20260508190405 | 92 | 115 | 4.0 | 8.0 | 0.00 | 0.00 | 0.00 | 63 | 1014.4 |
| 20260508185901 | 93 | 65 | 4.0 | 5.0 | 0.00 | 0.00 | 0.00 | 62 | 1014.4 |
| 20260508185359 | 94 | 61 | 1.0 | 1.0 | 0.00 | 0.00 | 0.00 | 60 | 1014.4 |
| 20260508184856 | 94 | 51 | 1.0 | 1.0 | 0.00 | 0.00 | 0.00 | 60 | 1014.2 |
| 20260508184353 | 93 | 163 | 7.0 | 9.0 | 0.00 | 0.00 | 0.00 | 62 | 1014.4 |
| 20260508183850 | 92 | 178 | 2.0 | 2.0 | 0.00 | 0.00 | 0.00 | 61 | 1014.6 |
| 20260508183346 | 93 | 102 | 4.0 | 6.0 | 0.00 | 0.00 | 0.00 | 61 | 1014.6 |
| 20260508182842 | 91 | 182 | 1.0 | 2.0 | 0.00 | 0.00 | 0.00 | 64 | 1014.8 |
| 20260508182339 | 92 | 349 | 2.0 | 2.0 | 0.00 | 0.00 | 0.00 | 62 | 1015.0 |
| 20260508181834 | 92 | 92 | 3.0 | 5.0 | 0.00 | 0.00 | 0.00 | 62 | 1014.7 |
| 20260508181332 | 91 | 330 | 0.0 | 1.0 | 0.00 | 0.00 | 0.00 | 63 | 1014.8 |
| 20260508180829 | 91 | 108 | 3.0 | 7.0 | 0.00 | 0.00 | 0.00 | 65 | 1014.9 |
| 20260508180325 | 94 | 43 | 5.0 | 8.0 | 0.00 | 0.00 | 0.00 | 60 | 1015.0 |
| 20260508175822 | 95 | 18 | 5.0 | 7.0 | 0.00 | 0.00 | 0.00 | 58 | 1014.9 |
| 20260508175318 | 97 | 336 | 0.0 | 1.0 | 0.00 | 0.00 | 0.00 | 57 | 1014.8 |
| 20260508174817 | 96 | 246 | 2.0 | 2.0 | 0.00 | 0.00 | 0.00 | 49 | 1014.9 |
| 20260508174314 | 98 | 106 | 3.0 | 3.0 | 0.00 | 0.00 | 0.00 | 49 | 1014.8 |
| 20260508173809 | 97 | 306 | 0.0 | 1.0 | 0.00 | 0.00 | 0.00 | 49 | 1015.0 |
| 20260508173307 | 94 | 330 | 1.0 | 2.0 | 0.00 | 0.00 | 0.00 | 51 | 1015.4 |
| 20260508172802 | 96 | 359 | 1.0 | 2.0 | 0.00 | 0.00 | 0.00 | 50 | 1015.4 |
| 20260508172300 | 96 | 246 | 4.0 | 6.0 | 0.00 | 0.00 | 0.00 | 49 | 1015.4 |
| 20260508171756 | 94 | 303 | 0.0 | 1.0 | 0.00 | 0.00 | 0.00 | 52 | 1015.3 |
| 20260508171252 | 95 | 288 | 1.0 | 1.0 | 0.00 | 0.00 | 0.00 | 54 | 1015.4 |
| 20260508170749 | 93 | 302 | 3.0 | 3.0 | 0.00 | 0.00 | 0.00 | 58 | 1015.4 |
| 20260508170247 | 93 | 126 | 3.0 | 3.0 | 0.00 | 0.00 | 0.00 | 58 | 1015.5 |
| 20260508165744 | 94 | 292 | 2.0 | 2.0 | 0.00 | 0.00 | 0.00 | 58 | 1015.6 |
| 20260508165241 | 93 | 295 | 1.0 | 1.0 | 0.00 | 0.00 | 0.00 | 58 | 1015.6 |
| 20260508164737 | 94 | 286 | 3.0 | 5.0 | 0.00 | 0.00 | 0.00 | 60 | 1016.0 |
| 20260508164234 | 93 | 113 | 2.0 | 2.0 | 0.00 | 0.00 | 0.00 | 60 | 1016.1 |
| 20260508163732 | 93 | 308 | 1.0 | 1.0 | 0.00 | 0.00 | 0.00 | 61 | 1016.0 |
| 20260508163229 | 93 | 51 | 2.0 | 2.0 | 0.00 | 0.00 | 0.00 | 62 | 1015.9 |
| 20260508162725 | 91 | 323 | 1.0 | 2.0 | 0.00 | 0.00 | 0.00 | 65 | 1016.0 |
| 20260508162222 | 91 | 326 | 1.0 | 1.0 | 0.00 | 0.00 | 0.00 | 66 | 1016.1 |
| 20260508161719 | 89 | 35 | 3.0 | 5.0 | 0.00 | 0.00 | 0.00 | 67 | 1016.2 |
| 20260508161216 | 90 | 308 | 3.0 | 3.0 | 0.00 | 0.00 | 0.00 | 67 | 1016.3 |
| 20260508160714 | 91 | 226 | 2.0 | 2.0 | 0.00 | 0.00 | 0.00 | 65 | 1016.5 |
| 20260508160212 | 91 | 326 | 3.0 | 3.0 | 0.00 | 0.00 | 0.00 | 68 | 1016.4 |
| 20260508155709 | 89 | 314 | 3.0 | 3.0 | 0.00 | 0.00 | 0.00 | 70 | 1016.5 |
| 20260508155206 | 89 | 223 | 0.0 | 1.0 | 0.00 | 0.00 | 0.00 | 70 | 1016.5 |
| 20260508154703 | 89 | 311 | 1.0 | 1.0 | 0.00 | 0.00 | 0.00 | 70 | 1016.6 |
| 20260508154159 | 90 | 241 | 2.0 | 3.0 | 0.00 | 0.00 | 0.00 | 68 | 1016.6 |
| 20260508153656 | 90 | 284 | 2.0 | 2.0 | 0.00 | 0.00 | 0.00 | 70 | 1016.8 |
| 20260508153153 | 89 | 306 | 1.0 | 1.0 | 0.00 | 0.00 | 0.00 | 73 | 1016.6 |
| 20260508152649 | 88 | 38 | 2.0 | 2.0 | 0.00 | 0.00 | 0.00 | 73 | 1016.8 |
| 20260508152146 | 89 | 13 | 2.0 | 2.0 | 0.00 | 0.00 | 0.00 | 73 | 1016.6 |
| 20260508151642 | 87 | 249 | 2.0 | 2.0 | 0.00 | 0.00 | 0.00 | 76 | 1016.9 |
| 20260508151139 | 89 | 351 | 1.0 | 1.0 | 0.00 | 0.00 | 0.00 | 74 | 1016.7 |
| 20260508150636 | 89 | 285 | 2.0 | 3.0 | 0.00 | 0.00 | 0.00 | 73 | 1016.8 |
| 20260508150133 | 87 | 291 | 0.0 | 0.0 | 0.00 | 0.00 | 0.00 | 73 | 1016.7 |
| 20260508145629 | 87 | 19 | 3.0 | 5.0 | 0.00 | 0.00 | 0.00 | 75 | 1016.8 |
| 20260508145125 | 86 | 343 | 0.0 | 1.0 | 0.00 | 0.00 | 0.00 | 76 | 1017.0 |
| 20260508144623 | 87 | 6 | 3.0 | 3.0 | 0.00 | 0.00 | 0.00 | 77 | 1017.0 |
| 20260508144120 | 86 | 336 | 3.0 | 3.0 | 0.00 | 0.00 | 0.00 | 77 | 1016.9 |
| 20260508143618 | 86 | 46 | 1.0 | 1.0 | 0.00 | 0.00 | 0.00 | 77 | 1016.8 |
| 20260508143114 | 85 | 332 | 3.0 | 3.0 | 0.00 | 0.00 | 0.00 | 79 | 1016.9 |
| 20260508142610 | 86 | 43 | 3.0 | 5.0 | 0.00 | 0.00 | 0.00 | 80 | 1016.9 |
| 20260508142107 | 86 | 330 | 1.0 | 1.0 | 0.00 | 0.00 | 0.00 | 77 | 1016.7 |
| 20260508141604 | 85 | 339 | 1.0 | 1.0 | 0.00 | 0.00 | 0.00 | 80 | 1016.9 |
| 20260508141102 | 86 | 34 | 3.0 | 5.0 | 0.00 | 0.00 | 0.00 | 78 | 1016.7 |
| 20260508140559 | 85 | 39 | 0.0 | 0.0 | 0.00 | 0.00 | 0.00 | 79 | 1016.8 |
| 20260508140055 | 85 | 357 | 2.0 | 2.0 | 0.00 | 0.00 | 0.00 | 80 | 1016.8 |
| 20260508135545 | 84 | 24 | 3.0 | 5.0 | 0.00 | 0.00 | 0.00 | 80 | 1016.7 |
| 20260508135042 | 84 | 322 | 1.0 | 2.0 | 0.00 | 0.00 | 0.00 | 81 | 1016.7 |
| 20260508134538 | 85 | 4 | 1.0 | 2.0 | 0.00 | 0.00 | 0.00 | 79 | 1016.8 |
| 20260508134035 | 85 | 273 | 1.0 | 1.0 | 0.00 | 0.00 | 0.00 | 80 | 1016.9 |
| 20260508133532 | 84 | 337 | 1.0 | 1.0 | 0.00 | 0.00 | 0.00 | 81 | 1016.5 |
| 20260508133029 | 84 | 298 | 1.0 | 2.0 | 0.00 | 0.00 | 0.00 | 80 | 1016.8 |
| 20260508132527 | 84 | 242 | 2.0 | 2.0 | 0.00 | 0.00 | 0.00 | 82 | 1016.7 |
| 20260508132023 | 84 | 311 | 1.0 | 2.0 | 0.00 | 0.00 | 0.00 | 81 | 1016.7 |
| 20260508131519 | 83 | 1 | 2.0 | 3.0 | 0.00 | 0.00 | 0.00 | 82 | 1016.8 |
| 20260508131016 | 83 | 344 | 1.0 | 2.0 | 0.00 | 0.00 | 0.00 | 83 | 1016.6 |
| 20260508130513 | 83 | 354 | 3.0 | 3.0 | 0.00 | 0.00 | 0.00 | 81 | 1016.8 |
| 20260508130009 | 83 | 272 | 1.0 | 1.0 | 0.00 | 0.00 | 0.00 | 83 | 1016.5 |
| 20260508125505 | 82 | 276 | 0.0 | 0.0 | 0.00 | 0.00 | 0.00 | 82 | 1016.3 |
| 20260508125003 | 82 | 308 | 0.0 | 1.0 | 0.00 | 0.00 | 0.00 | 83 | 1016.6 |
| 20260508124501 | 82 | 264 | 0.0 | 0.0 | 0.00 | 0.00 | 0.00 | 83 | 1016.5 |
| 20260508123958 | 81 | 28 | 0.0 | 1.0 | 0.00 | 0.00 | 0.00 | 83 | 1016.4 |
| 20260508123456 | 80 | 278 | 0.0 | 0.0 | 0.00 | 0.00 | 0.00 | 86 | 1016.6 |
| 20260508122952 | 80 | 268 | 1.0 | 1.0 | 0.00 | 0.00 | 0.00 | 85 | 1016.5 |
| 20260508122449 | 79 | 356 | 0.0 | 1.0 | 0.00 | 0.00 | 0.00 | 88 | 1016.4 |
| 20260508121946 | 79 | 253 | 1.0 | 1.0 | 0.00 | 0.00 | 0.00 | 87 | 1016.4 |
| 20260508121444 | 78 | 275 | 0.0 | 0.0 | 0.00 | 0.00 | 0.00 | 87 | 1016.3 |
| 20260508120942 | 78 | 270 | 0.0 | 0.0 | 0.00 | 0.00 | 0.00 | 89 | 1016.1 |
| 20260508120439 | 77 | 271 | 0.0 | 0.0 | 0.00 | 0.00 | 0.00 | 93 | 1016.3 |
| 20260508115937 | 75 | 271 | 0.0 | 0.0 | 0.00 | 0.00 | 0.00 | 96 | 1016.1 |
| 20260508115435 | 73 | 271 | 0.0 | 0.0 | 0.00 | 0.00 | 0.00 | 97 | 1016.3 |
| 20260508114931 | 73 | 271 | 0.0 | 0.0 | 0.00 | 0.00 | 0.00 | 98 | 1016.1 |
| 20260508114428 | 72 | 271 | 0.0 | 0.0 | 0.00 | 0.00 | 0.00 | 99 | 1016.0 |
| 20260508113925 | 70 | 271 | 0.0 | 0.0 | 0.00 | 0.00 | 0.00 | 99 | 1016.2 |
| 20260508113423 | 70 | 270 | 0.0 | 0.0 | 0.00 | 0.00 | 0.00 | 99 | 1015.8 |
| 20260508112919 | 69 | 270 | 0.0 | 0.0 | 0.00 | 0.00 | 0.00 | 99 | 1015.7 |
| 20260508112416 | 69 | 270 | 0.0 | 0.0 | 0.00 | 0.00 | 0.00 | 99 | 1015.7 |
| 20260508111913 | 69 | 268 | 1.0 | 1.0 | 0.00 | 0.00 | 0.00 | 99 | 1015.6 |
| 20260508111410 | 68 | 278 | 0.0 | 0.0 | 0.00 | 0.00 | 0.00 | 99 | 1015.9 |
| 20260508110907 | 68 | 278 | 0.0 | 0.0 | 0.00 | 0.00 | 0.00 | 99 | 1015.6 |
| 20260508110405 | 67 | 278 | 0.0 | 0.0 | 0.00 | 0.00 | 0.00 | 99 | 1015.6 |
| 20260508105904 | 67 | 278 | 0.0 | 0.0 | 0.00 | 0.00 | 0.00 | 99 | 1015.5 |
| 20260508105401 | 66 | 278 | 0.0 | 0.0 | 0.00 | 0.00 | 0.00 | 99 | 1015.5 |
| 20260508104858 | 66 | 278 | 0.0 | 0.0 | 0.00 | 0.00 | 0.00 | 99 | 1015.4 |
| 20260508104355 | 66 | 278 | 0.0 | 0.0 | 0.00 | 0.00 | 0.00 | 99 | 1015.1 |
| 20260508103852 | 66 | 278 | 0.0 | 0.0 | 0.00 | 0.00 | 0.00 | 99 | 1015.1 |
| 20260508103349 | 66 | 278 | 0.0 | 0.0 | 0.00 | 0.00 | 0.00 | 99 | 1015.2 |
| 20260508102846 | 66 | 278 | 0.0 | 0.0 | 0.00 | 0.00 | 0.00 | 99 | 1015.2 |
| 20260508102345 | 66 | 278 | 0.0 | 0.0 | 0.00 | 0.00 | 0.00 | 99 | 1014.8 |
| 20260508101842 | 66 | 278 | 0.0 | 0.0 | 0.00 | 0.00 | 0.00 | 99 | 1014.9 |
| 20260508101339 | 66 | 278 | 0.0 | 0.0 | 0.00 | 0.00 | 0.00 | 99 | 1014.9 |
| 20260508100836 | 66 | 277 | 0.0 | 0.0 | 0.00 | 0.00 | 0.00 | 99 | 1014.9 |
| 20260508100335 | 66 | 278 | 0.0 | 0.0 | 0.00 | 0.00 | 0.00 | 98 | 1014.8 |
| 20260508095830 | 66 | 278 | 0.0 | 0.0 | 0.00 | 0.00 | 0.00 | 98 | 1014.5 |
| 20260508095328 | 66 | 277 | 0.0 | 0.0 | 0.00 | 0.00 | 0.00 | 98 | 1014.5 |
| 20260508094825 | 66 | 277 | 0.0 | 0.0 | 0.00 | 0.00 | 0.00 | 98 | 1014.7 |
| 20260508094322 | 66 | 277 | 0.0 | 0.0 | 0.00 | 0.00 | 0.00 | 98 | 1014.6 |
| 20260508093819 | 66 | 277 | 0.0 | 0.0 | 0.00 | 0.00 | 0.00 | 98 | 1014.7 |
| 20260508093316 | 66 | 277 | 0.0 | 0.0 | 0.00 | 0.00 | 0.00 | 98 | 1014.6 |
| 20260508092813 | 66 | 277 | 0.0 | 0.0 | 0.00 | 0.00 | 0.00 | 98 | 1014.7 |
| 20260508092313 | 67 | 277 | 0.0 | 0.0 | 0.00 | 0.00 | 0.00 | 98 | 1014.6 |
| 20260508091809 | 67 | 277 | 0.0 | 0.0 | 0.00 | 0.00 | 0.00 | 98 | 1014.5 |
| 20260508091305 | 67 | 277 | 0.0 | 0.0 | 0.00 | 0.00 | 0.00 | 97 | 1014.7 |
| 20260508090804 | 67 | 277 | 0.0 | 0.0 | 0.00 | 0.00 | 0.00 | 97 | 1014.4 |
| 20260508090302 | 66 | 277 | 0.0 | 0.0 | 0.00 | 0.00 | 0.00 | 97 | 1014.3 |
| 20260508085757 | 66 | 277 | 0.0 | 0.0 | 0.00 | 0.00 | 0.00 | 97 | 1014.4 |
| 20260508085254 | 66 | 277 | 0.0 | 0.0 | 0.00 | 0.00 | 0.00 | 97 | 1014.4 |
| 20260508084750 | 66 | 277 | 0.0 | 0.0 | 0.00 | 0.00 | 0.00 | 97 | 1014.5 |
| 20260508084248 | 66 | 277 | 0.0 | 0.0 | 0.00 | 0.00 | 0.00 | 97 | 1014.5 |
| 20260508083745 | 66 | 277 | 0.0 | 0.0 | 0.00 | 0.00 | 0.00 | 97 | 1014.5 |
| 20260508083243 | 66 | 277 | 0.0 | 0.0 | 0.00 | 0.00 | 0.00 | 97 | 1014.3 |
| 20260508082742 | 66 | 277 | 0.0 | 0.0 | 0.00 | 0.00 | 0.00 | 97 | 1014.4 |
| 20260508082241 | 66 | 277 | 0.0 | 0.0 | 0.00 | 0.00 | 0.00 | 96 | 1014.2 |
| 20260508081737 | 67 | 277 | 0.0 | 0.0 | 0.00 | 0.00 | 0.00 | 96 | 1014.7 |
| 20260508081234 | 67 | 277 | 0.0 | 0.0 | 0.00 | 0.00 | 0.00 | 96 | 1014.4 |
| 20260508080731 | 67 | 277 | 0.0 | 0.0 | 0.00 | 0.00 | 0.00 | 96 | 1014.4 |
| 20260508080229 | 67 | 277 | 0.0 | 0.0 | 0.00 | 0.00 | 0.00 | 96 | 1014.4 |
| 20260508075726 | 67 | 277 | 0.0 | 0.0 | 0.00 | 0.00 | 0.00 | 96 | 1014.4 |
| 20260508075222 | 67 | 277 | 0.0 | 0.0 | 0.00 | 0.00 | 0.00 | 95 | 1014.4 |
| 20260508074720 | 67 | 277 | 0.0 | 0.0 | 0.00 | 0.00 | 0.00 | 95 | 1014.6 |
| 20260508074217 | 68 | 277 | 0.0 | 0.0 | 0.00 | 0.00 | 0.00 | 95 | 1014.9 |
| 20260508073714 | 68 | 277 | 0.0 | 0.0 | 0.00 | 0.00 | 0.00 | 95 | 1014.7 |
| 20260508073212 | 68 | 277 | 0.0 | 0.0 | 0.00 | 0.00 | 0.00 | 95 | 1014.5 |
| 20260508072708 | 68 | 277 | 0.0 | 0.0 | 0.00 | 0.00 | 0.00 | 94 | 1014.5 |
| 20260508072205 | 67 | 277 | 0.0 | 0.0 | 0.00 | 0.00 | 0.00 | 94 | 1014.4 |
| 20260508071702 | 67 | 277 | 0.0 | 0.0 | 0.00 | 0.00 | 0.00 | 94 | 1014.7 |
| 20260508071201 | 67 | 277 | 0.0 | 0.0 | 0.00 | 0.00 | 0.00 | 94 | 1014.6 |
| 20260508070658 | 67 | 277 | 0.0 | 0.0 | 0.00 | 0.00 | 0.00 | 94 | 1014.7 |
| 20260508070156 | 68 | 277 | 0.0 | 0.0 | 0.00 | 0.00 | 0.00 | 94 | 1014.6 |
| 20260508065653 | 68 | 277 | 0.0 | 0.0 | 0.00 | 0.00 | 0.00 | 94 | 1014.7 |
| 20260508065151 | 68 | 277 | 0.0 | 0.0 | 0.00 | 0.00 | 0.00 | 94 | 1014.9 |
| 20260508064648 | 68 | 277 | 0.0 | 0.0 | 0.00 | 0.00 | 0.00 | 94 | 1014.7 |
| 20260508064146 | 68 | 277 | 0.0 | 0.0 | 0.00 | 0.00 | 0.00 | 94 | 1014.7 |
| 20260508063644 | 68 | 277 | 0.0 | 0.0 | 0.00 | 0.00 | 0.00 | 94 | 1014.7 |
| 20260508063141 | 68 | 277 | 0.0 | 0.0 | 0.00 | 0.00 | 0.00 | 93 | 1014.8 |
| 20260508062639 | 69 | 277 | 0.0 | 0.0 | 0.00 | 0.00 | 0.00 | 93 | 1015.0 |
| 20260508062135 | 69 | 277 | 0.0 | 0.0 | 0.00 | 0.00 | 0.00 | 93 | 1014.8 |
| 20260508061633 | 69 | 277 | 0.0 | 0.0 | 0.00 | 0.00 | 0.00 | 93 | 1014.8 |
| 20260508061130 | 69 | 277 | 0.0 | 0.0 | 0.00 | 0.00 | 0.00 | 92 | 1015.0 |
| 20260508060626 | 69 | 277 | 0.0 | 0.0 | 0.00 | 0.00 | 0.00 | 91 | 1014.9 |
| 20260508060124 | 69 | 277 | 0.0 | 0.0 | 0.00 | 0.00 | 0.00 | 91 | 1015.1 |
| 20260508055619 | 69 | 277 | 0.0 | 0.0 | 0.00 | 0.00 | 0.00 | 91 | 1015.0 |
| 20260508055116 | 70 | 277 | 0.0 | 0.0 | 0.00 | 0.00 | 0.00 | 91 | 1015.2 |
| 20260508054613 | 70 | 277 | 0.0 | 0.0 | 0.00 | 0.00 | 0.00 | 91 | 1015.3 |
| 20260508054110 | 70 | 249 | 0.0 | 0.0 | 0.00 | 0.00 | 0.00 | 91 | 1015.2 |
| 20260508053607 | 70 | 250 | 0.0 | 0.0 | 0.00 | 0.00 | 0.00 | 91 | 1015.3 |
| 20260508053105 | 70 | 250 | 0.0 | 0.0 | 0.00 | 0.00 | 0.00 | 91 | 1015.3 |
| 20260508052602 | 70 | 250 | 0.0 | 0.0 | 0.00 | 0.00 | 0.00 | 90 | 1015.3 |
| 20260508052059 | 71 | 250 | 0.0 | 0.0 | 0.00 | 0.00 | 0.00 | 91 | 1015.4 |
| 20260508051555 | 70 | 250 | 0.0 | 0.0 | 0.00 | 0.00 | 0.00 | 90 | 1015.3 |
| 20260508051051 | 71 | 250 | 0.0 | 0.0 | 0.00 | 0.00 | 0.00 | 90 | 1015.1 |
| 20260508050547 | 71 | 250 | 0.0 | 0.0 | 0.00 | 0.00 | 0.00 | 90 | 1015.2 |
| 20260508050045 | 71 | 250 | 0.0 | 0.0 | 0.00 | 0.00 | 0.00 | 90 | 1015.1 |
| 20260508045540 | 71 | 250 | 0.0 | 0.0 | 0.00 | 0.00 | 0.00 | 89 | 1015.1 |
| 20260508045038 | 71 | 250 | 0.0 | 0.0 | 0.00 | 0.00 | 0.00 | 90 | 1015.2 |
| 20260508044535 | 71 | 250 | 0.0 | 0.0 | 0.00 | 0.00 | 0.00 | 91 | 1015.3 |
| 20260508044031 | 72 | 249 | 0.0 | 0.0 | 0.00 | 0.00 | 0.00 | 91 | 1015.2 |
| 20260508043528 | 72 | 251 | 0.0 | 0.0 | 0.00 | 0.00 | 0.00 | 90 | 1015.1 |
| 20260508043026 | 72 | 251 | 0.0 | 0.0 | 0.00 | 0.00 | 0.00 | 90 | 1015.0 |
| 20260508042522 | 72 | 251 | 0.0 | 0.0 | 0.00 | 0.00 | 0.00 | 91 | 1015.0 |
| 20260508042020 | 72 | 251 | 0.0 | 0.0 | 0.00 | 0.00 | 0.00 | 92 | 1015.1 |
| 20260508041516 | 72 | 251 | 0.0 | 0.0 | 0.00 | 0.00 | 0.00 | 93 | 1015.1 |
| 20260508041012 | 72 | 251 | 0.0 | 0.0 | 0.00 | 0.00 | 0.00 | 94 | 1015.0 |
| 20260508040510 | 72 | 251 | 0.0 | 0.0 | 0.00 | 0.00 | 0.00 | 94 | 1015.1 |
| 20260508040007 | 73 | 251 | 0.0 | 0.0 | 0.00 | 0.00 | 0.00 | 95 | 1015.0 |
| 20260508035504 | 73 | 251 | 0.0 | 0.0 | 0.00 | 0.00 | 0.00 | 95 | 1015.1 |
| 20260508035000 | 74 | 251 | 0.0 | 0.0 | 0.00 | 0.00 | 0.00 | 95 | 1015.1 |
| 20260508034458 | 74 | 250 | 0.0 | 0.0 | 0.00 | 0.00 | 0.00 | 95 | 1015.1 |
| 20260508033954 | 75 | 251 | 0.0 | 0.0 | 0.00 | 0.00 | 0.00 | 95 | 1015.1 |
| 20260508033453 | 75 | 251 | 0.0 | 0.0 | 0.00 | 0.00 | 0.00 | 95 | 1015.2 |
| 20260508032950 | 75 | 251 | 0.0 | 0.0 | 0.00 | 0.00 | 0.00 | 95 | 1014.9 |
| 20260508032447 | 76 | 251 | 0.0 | 0.0 | 0.00 | 0.00 | 0.00 | 95 | 1015.2 |
| 20260508031944 | 76 | 250 | 0.0 | 0.0 | 0.00 | 0.00 | 0.00 | 95 | 1014.8 |
| 20260508031441 | 77 | 280 | 0.0 | 0.0 | 0.00 | 0.00 | 0.00 | 94 | 1015.2 |
| 20260508030937 | 77 | 281 | 0.0 | 0.0 | 0.00 | 0.00 | 0.00 | 93 | 1014.9 |
| 20260508030434 | 77 | 306 | 0.0 | 0.0 | 0.00 | 0.00 | 0.00 | 93 | 1015.0 |
| 20260508025931 | 78 | 273 | 0.0 | 0.0 | 0.00 | 0.00 | 0.00 | 92 | 1014.7 |
| 20260508025427 | 78 | 269 | 0.0 | 0.0 | 0.00 | 0.00 | 0.00 | 92 | 1014.8 |
| 20260508024924 | 78 | 308 | 0.0 | 0.0 | 0.00 | 0.00 | 0.00 | 92 | 1014.7 |
| 20260508024421 | 78 | 296 | 0.0 | 0.0 | 0.00 | 0.00 | 0.00 | 91 | 1014.7 |
| 20260508023917 | 78 | 231 | 0.0 | 0.0 | 0.00 | 0.00 | 0.00 | 91 | 1014.7 |
| 20260508023415 | 78 | 185 | 1.0 | 1.0 | 0.00 | 0.00 | 0.00 | 90 | 1014.7 |
| 20260508022912 | 79 | 293 | 0.0 | 0.0 | 0.00 | 0.00 | 0.00 | 90 | 1014.5 |
| 20260508022407 | 79 | 251 | 0.0 | 0.0 | 0.00 | 0.00 | 0.00 | 90 | 1014.6 |
| 20260508021904 | 80 | 267 | 0.0 | 0.0 | 0.00 | 0.00 | 0.00 | 89 | 1014.5 |
| 20260508021400 | 80 | 244 | 1.0 | 1.0 | 0.00 | 0.00 | 0.00 | 88 | 1014.4 |
| 20260508020856 | 80 | 207 | 2.0 | 2.0 | 0.00 | 0.00 | 0.00 | 88 | 1014.4 |
| 20260508020354 | 80 | 272 | 0.0 | 0.0 | 0.00 | 0.00 | 0.00 | 87 | 1014.5 |
| 20260508015852 | 80 | 215 | 1.0 | 1.0 | 0.00 | 0.00 | 0.00 | 88 | 1014.5 |
| 20260508015349 | 80 | 189 | 1.0 | 1.0 | 0.00 | 0.00 | 0.00 | 88 | 1014.4 |
| 20260508014845 | 80 | 259 | 0.0 | 0.0 | 0.00 | 0.00 | 0.00 | 88 | 1014.4 |
| 20260508014337 | 80 | 264 | 0.0 | 0.0 | 0.00 | 0.00 | 0.00 | 87 | 1014.4 |
| 20260508013837 | 80 | 278 | 0.0 | 0.0 | 0.00 | 0.00 | 0.00 | 87 | 1014.3 |
| 20260508013334 | 81 | 241 | 0.0 | 0.0 | 0.00 | 0.00 | 0.00 | 87 | 1014.3 |
| 20260508012832 | 81 | 214 | 2.0 | 3.0 | 0.00 | 0.00 | 0.00 | 86 | 1014.3 |
| 20260508012329 | 81 | 235 | 0.0 | 1.0 | 0.00 | 0.00 | 0.00 | 86 | 1014.3 |
| 20260508011826 | 81 | 208 | 0.0 | 1.0 | 0.00 | 0.00 | 0.00 | 85 | 1014.3 |
| 20260508011324 | 81 | 171 | 1.0 | 1.0 | 0.00 | 0.00 | 0.00 | 85 | 1014.3 |
| 20260508010821 | 82 | 132 | 3.0 | 3.0 | 0.00 | 0.00 | 0.00 | 84 | 1014.2 |
| 20260508010319 | 82 | 129 | 2.0 | 2.0 | 0.00 | 0.00 | 0.00 | 84 | 1014.1 |
| 20260508005815 | 82 | 231 | 0.0 | 0.0 | 0.00 | 0.00 | 0.00 | 84 | 1013.9 |
| 20260508005312 | 82 | 164 | 0.0 | 0.0 | 0.00 | 0.00 | 0.00 | 83 | 1014.1 |
| 20260508004808 | 82 | 241 | 0.0 | 1.0 | 0.00 | 0.00 | 0.00 | 83 | 1014.0 |
| 20260508004304 | 83 | 185 | 2.0 | 3.0 | 0.00 | 0.00 | 0.00 | 82 | 1014.0 |
| 20260508003801 | 83 | 185 | 2.0 | 2.0 | 0.00 | 0.00 | 0.00 | 82 | 1013.9 |
| 20260508003259 | 83 | 181 | 2.0 | 2.0 | 0.00 | 0.00 | 0.00 | 82 | 1014.1 |
| 20260508002755 | 83 | 180 | 3.0 | 3.0 | 0.00 | 0.00 | 0.00 | 81 | 1013.9 |
| 20260508002252 | 84 | 144 | 1.0 | 1.0 | 0.00 | 0.00 | 0.00 | 81 | 1013.9 |
| 20260508001748 | 84 | 126 | 1.0 | 2.0 | 0.00 | 0.00 | 0.00 | 80 | 1013.9 |
| 20260508001244 | 84 | 153 | 3.0 | 5.0 | 0.00 | 0.00 | 0.00 | 80 | 1013.9 |
| 20260508000740 | 84 | 128 | 2.0 | 2.0 | 0.00 | 0.00 | 0.00 | 79 | 1013.8 |
| 20260508000238 | 85 | 103 | 1.0 | 1.0 | 0.00 | 0.00 | 0.00 | 79 | 1014.0 |
| 20260507235734 | 85 | 179 | 1.0 | 1.0 | 0.00 | 0.00 | 0.00 | 78 | 1014.1 |
| 20260507235231 | 86 | 105 | 2.0 | 3.0 | 0.00 | 0.00 | 0.00 | 77 | 1013.8 |
| 20260507234728 | 86 | 120 | 4.0 | 5.0 | 0.00 | 0.00 | 0.00 | 76 | 1013.7 |
| 20260507234225 | 86 | 152 | 5.0 | 6.0 | 0.00 | 0.00 | 0.00 | 76 | 1013.8 |
| 20260507233721 | 86 | 136 | 3.0 | 3.0 | 0.00 | 0.00 | 0.00 | 75 | 1013.8 |
| 20260507233219 | 87 | 99 | 6.0 | 7.0 | 0.00 | 0.00 | 0.00 | 74 | 1013.9 |
| 20260507232716 | 87 | 135 | 4.0 | 5.0 | 0.00 | 0.00 | 0.00 | 74 | 1013.6 |
| 20260507232213 | 88 | 119 | 1.0 | 1.0 | 0.00 | 0.00 | 0.00 | 72 | 1013.6 |
| 20260507231710 | 88 | 65 | 0.0 | 0.0 | 0.00 | 0.00 | 0.00 | 72 | 1013.6 |
| 20260507231207 | 89 | 109 | 6.0 | 7.0 | 0.00 | 0.00 | 0.00 | 71 | 1013.7 |
| 20260507230703 | 89 | 119 | 4.0 | 6.0 | 0.00 | 0.00 | 0.00 | 70 | 1013.5 |
| 20260507230201 | 89 | 207 | 2.0 | 3.0 | 0.00 | 0.00 | 0.00 | 71 | 1013.4 |
| 20260507225700 | 89 | 101 | 5.0 | 8.0 | 0.00 | 0.00 | 0.00 | 70 | 1013.5 |
| 20260507225157 | 89 | 100 | 5.0 | 6.0 | 0.00 | 0.00 | 0.00 | 70 | 1013.4 |
| 20260507224653 | 91 | 85 | 5.0 | 6.0 | 0.00 | 0.00 | 0.00 | 68 | 1013.3 |
| 20260507224149 | 91 | 137 | 4.0 | 7.0 | 0.00 | 0.00 | 0.00 | 67 | 1013.2 |
| 20260507223645 | 92 | 109 | 4.0 | 6.0 | 0.00 | 0.00 | 0.00 | 65 | 1013.2 |
| 20260507223143 | 92 | 115 | 5.0 | 7.0 | 0.00 | 0.00 | 0.00 | 64 | 1013.3 |
| 20260507222639 | 96 | 120 | 2.0 | 2.0 | 0.00 | 0.00 | 0.00 | 57 | 1013.4 |
| 20260507222136 | 96 | 190 | 2.0 | 3.0 | 0.00 | 0.00 | 0.00 | 48 | 1013.3 |
| 20260507221632 | 98 | 283 | 0.0 | 1.0 | 0.00 | 0.00 | 0.00 | 46 | 1013.2 |
| 20260507221129 | 98 | 283 | 1.0 | 1.0 | 0.00 | 0.00 | 0.00 | 44 | 1013.3 |
| 20260507220626 | 98 | 262 | 3.0 | 3.0 | 0.00 | 0.00 | 0.00 | 43 | 1013.2 |